Weather History for Nebraska City, NE

Change the Weather History Date:

Monday, March 17, 2014

  Actual Average (KSDA) Record (KSDA)
Temperature  
Mean Temperature 39 °F -  
Max Temperature 58 °F 52 °F 80 °F (2012)
Min Temperature 21 °F 30 °F 10 °F (1960)
Degree Days  
Heating Degree Days 26    
Moisture  
Dew Point 22 °F    
Average Humidity 54    
Maximum Humidity 83    
Minimum Humidity 29    
Precipitation  
Precipitation 0.00 in - - ()
Sea Level Pressure  
Sea Level Pressure 29.71 in    
Wind  
Wind Speed 13 mph (South)    
Max Wind Speed 26 mph    
Max Gust Speed 32 mph    
Visibility 10 miles    
Events      
Averages and records for this station are not official NWS values.
T = Trace of Precipitation, MM = Missing Value Source: NWS Daily Summary

Daily Weather History Graph

Daily Weather History Graph

Search for Another Location

Airport:

Trip Planner

Search our weather history database for the weather conditions in past years. The results will help you decide how hot, cold, wet, or windy it might be!

Date:

Astronomy

Mar. 17, 2014 Rise Set
Actual Time 7:31 AM CDT 7:32 PM CDT
Civil Twilight 7:04 AM CDT 7:59 PM CDT
Nautical Twilight 6:32 AM CDT 8:31 PM CDT
Astronomical Twilight 6:00 AM CDT 9:03 PM CDT
Moon 8:50 PM CDT (3/17) 7:47 AM CDT (3/17)
Length of Visible Light 12h 55m
Length of Day
12h 00m
Full, 99% of the Moon is Illuminated
Mar 17
Full
Mar 23
Last Quarter
Mar 30
New
Apr 7
First Quarter
Apr 15
Full

Hourly Weather History & Observations

Time (CDT) Temp. Windchill Dew Point Humidity Pressure Visibility Wind Dir Wind Speed Gust Speed Precip Events Conditions
12:15 AM 24.3 °F 17.3 °F 16.3 °F 72% 30.07 in 10.0 mi South 5.8 mph - N/A   Clear
12:35 AM 23.2 °F 16.0 °F 16.2 °F 75% 30.07 in 10.0 mi South 5.8 mph - N/A   Clear
1:15 AM 23.0 °F 15.8 °F 16.3 °F 76% 30.04 in 10.0 mi South 5.8 mph - N/A   Clear
1:35 AM 22.6 °F 14.3 °F 16.3 °F 77% 30.03 in 10.0 mi South 6.9 mph - N/A   Clear
1:55 AM 22.8 °F 14.5 °F 16.5 °F 77% 30.02 in 10.0 mi South 6.9 mph - N/A   Clear
2:15 AM 22.3 °F 13.9 °F 16.7 °F 79% 30.02 in 10.0 mi South 6.9 mph - N/A   Clear
2:35 AM 22.1 °F 13.7 °F 16.5 °F 79% 30.01 in 10.0 mi South 6.9 mph - N/A   Clear
2:55 AM 21.2 °F 11.7 °F 16.5 °F 82% 30.00 in 10.0 mi South 8.1 mph - N/A   Clear
3:15 AM 22.6 °F 12.6 °F 17.1 °F 79% 29.97 in 10.0 mi South 9.2 mph - N/A   Clear
3:35 AM 23.0 °F 13.1 °F 17.2 °F 79% 29.96 in 10.0 mi South 9.2 mph - N/A   Clear
3:55 AM 23.5 °F 13.7 °F 17.4 °F 77% 29.96 in 10.0 mi South 9.2 mph - N/A   Clear
4:15 AM 24.4 °F 13.0 °F 18.1 °F 77% 29.94 in 10.0 mi South 12.7 mph - N/A   Clear
4:35 AM 24.8 °F 12.4 °F 18.3 °F 76% 29.92 in 10.0 mi South 15.0 mph - N/A   Clear
4:55 AM 24.6 °F 12.7 °F 18.0 °F 76% 29.92 in 10.0 mi South 13.8 mph - N/A   Clear
5:15 AM 24.1 °F 13.1 °F 17.6 °F 76% 29.91 in 10.0 mi South 11.5 mph - N/A   Clear
5:35 AM 23.5 °F 11.8 °F 17.6 °F 78% 29.90 in 10.0 mi South 12.7 mph - N/A   Clear
5:55 AM 23.5 °F 12.4 °F 17.6 °F 78% 29.89 in 10.0 mi South 11.5 mph - N/A   Clear
6:15 AM 23.5 °F 11.8 °F 17.6 °F 78% 29.86 in 10.0 mi South 12.7 mph - N/A   Clear
6:35 AM 23.5 °F 13.0 °F 17.6 °F 78% 29.87 in 10.0 mi South 10.4 mph - N/A   Clear
6:55 AM 23.0 °F 12.4 °F 17.6 °F 80% 29.87 in 10.0 mi South 10.4 mph - N/A   Clear
7:15 AM 22.6 °F 12.6 °F 18.1 °F 83% 29.85 in 10.0 mi South 9.2 mph - N/A   Clear
7:35 AM 22.8 °F 12.2 °F 18.5 °F 83% 29.84 in 10.0 mi South 10.4 mph - N/A   Clear
7:55 AM 23.9 °F 12.9 °F 19.0 °F 82% 29.84 in 10.0 mi South 11.5 mph - N/A   Clear
8:15 AM 25.0 °F 14.2 °F 19.6 °F 80% 29.83 in 10.0 mi South 11.5 mph - N/A   Clear
8:35 AM 27.0 °F 14.7 °F 20.5 °F 77% 29.82 in 10.0 mi South 16.1 mph - N/A   Clear
8:55 AM 28.2 °F 15.9 °F 20.7 °F 73% 29.81 in 10.0 mi South 17.3 mph - N/A   Clear
9:15 AM 28.4 °F 17.0 °F 20.7 °F 73% 29.80 in 10.0 mi South 15.0 mph - N/A   Clear
9:35 AM 31.1 °F 19.3 °F 21.4 °F 67% 29.79 in 10.0 mi South 18.4 mph - N/A   Clear
9:55 AM 32.9 °F 21.3 °F 20.8 °F 61% 29.78 in 10.0 mi South 19.6 mph - N/A   Clear
10:15 AM 34.9 °F 24.6 °F 21.2 °F 57% 29.76 in 10.0 mi SSW 17.3 mph 23.0 mph N/A   Clear
10:35 AM 37.6 °F 28.1 °F 21.0 °F 51% 29.75 in 10.0 mi South 17.3 mph 25.3 mph N/A   Clear
10:55 AM 39.0 °F 29.9 °F 20.5 °F 47% 29.75 in 10.0 mi SSW 17.3 mph 23.0 mph N/A   Clear
11:15 AM 40.1 °F 30.2 °F 21.0 °F 47% 29.72 in 10.0 mi South 21.9 mph 25.3 mph N/A   Clear
11:35 AM 42.6 °F 34.0 °F 21.2 °F 43% 29.71 in 10.0 mi South 19.6 mph 26.5 mph N/A   Clear
11:55 AM 44.8 °F 37.1 °F 21.4 °F 40% 29.69 in 10.0 mi South 18.4 mph 26.5 mph N/A   Clear
12:15 PM 46.8 °F - 21.6 °F 37% 29.69 in 10.0 mi South 20.7 mph 25.3 mph N/A   Clear
12:35 PM 47.1 °F - 21.2 °F 36% 29.67 in 10.0 mi South 21.9 mph 25.3 mph N/A   Clear
12:55 PM 48.4 °F - 21.7 °F 35% 29.66 in 10.0 mi SSW 21.9 mph 27.6 mph N/A   Clear
1:15 PM 49.3 °F - 22.1 °F 34% 29.64 in 10.0 mi SSW 19.6 mph 25.3 mph N/A   Clear
1:35 PM 50.7 °F - 22.8 °F 34% 29.63 in 10.0 mi South 21.9 mph - N/A   Clear
1:55 PM 52.0 °F - 23.5 °F 33% 29.62 in 10.0 mi SSW 23.0 mph 28.8 mph N/A   Clear
2:15 PM 53.2 °F - 23.7 °F 32% 29.60 in 10.0 mi South 21.9 mph 28.8 mph N/A   Clear
2:35 PM 54.3 °F - 23.9 °F 31% 29.58 in 10.0 mi South 19.6 mph 27.6 mph N/A   Clear
2:55 PM 54.1 °F - 23.9 °F 31% 29.57 in 10.0 mi South 26.5 mph 31.1 mph N/A   Clear
3:15 PM 55.4 °F - 24.3 °F 30% 29.56 in 10.0 mi South 25.3 mph 32.2 mph N/A   Clear
3:35 PM 56.3 °F - 24.4 °F 29% 29.55 in 10.0 mi South 25.3 mph 31.1 mph N/A   Clear
3:55 PM 55.9 °F - 24.4 °F 30% 29.54 in 10.0 mi South 24.2 mph 32.2 mph N/A   Clear
4:15 PM 56.7 °F - 24.8 °F 29% 29.53 in 10.0 mi South 20.7 mph 29.9 mph N/A   Clear
4:35 PM 56.8 °F - 25.0 °F 29% 29.52 in 10.0 mi South 23.0 mph 28.8 mph N/A   Clear
4:55 PM 56.1 °F - 25.0 °F 30% 29.52 in 10.0 mi South 20.7 mph 31.1 mph N/A   Clear
5:15 PM 56.3 °F - 25.2 °F 30% 29.52 in 10.0 mi South 24.2 mph 29.9 mph N/A   Clear
5:35 PM 57.6 °F - 25.0 °F 29% 29.50 in 10.0 mi South 23.0 mph 27.6 mph N/A   Clear
5:55 PM 56.5 °F - 24.8 °F 30% 29.49 in 10.0 mi South 20.7 mph 26.5 mph N/A   Clear
6:15 PM 56.3 °F - 25.3 °F 30% 29.49 in 10.0 mi South 17.3 mph 26.5 mph N/A   Clear
6:35 PM 55.2 °F - 24.8 °F 31% 29.48 in 10.0 mi South 19.6 mph 26.5 mph N/A   Clear
6:55 PM 54.3 °F - 24.8 °F 32% 29.48 in 10.0 mi South 17.3 mph 24.2 mph N/A   Clear
7:15 PM 52.9 °F - 25.2 °F 34% 29.48 in 10.0 mi South 18.4 mph 21.9 mph N/A   Clear
7:35 PM 51.8 °F - 25.2 °F 36% 29.48 in 10.0 mi South 17.3 mph 24.2 mph N/A   Clear
7:55 PM 50.9 °F - 25.0 °F 36% 29.48 in 10.0 mi South 17.3 mph 21.9 mph N/A   Clear
8:15 PM 50.2 °F - 25.0 °F 37% 29.48 in 10.0 mi South 17.3 mph 23.0 mph N/A   Clear
8:35 PM 49.5 °F - 25.3 °F 39% 29.49 in 10.0 mi South 17.3 mph - N/A   Clear
8:55 PM 49.1 °F - 25.3 °F 40% 29.49 in 10.0 mi South 18.4 mph 24.2 mph N/A   Clear
9:15 PM 48.2 °F - 26.1 °F 42% 29.50 in 10.0 mi South 16.1 mph - N/A   Clear
9:35 PM 48.0 °F - 27.0 °F 44% 29.50 in 10.0 mi South 17.3 mph 21.9 mph N/A   Clear
9:55 PM 47.5 °F - 27.1 °F 45% 29.51 in 10.0 mi South 15.0 mph 21.9 mph N/A   Clear
10:15 PM 46.4 °F 39.2 °F 27.9 °F 48% 29.50 in 10.0 mi South 18.4 mph 23.0 mph N/A   Clear
10:35 PM 45.9 °F 39.4 °F 28.0 °F 50% 29.51 in 10.0 mi South 15.0 mph - N/A   Clear
10:55 PM 44.8 °F 38.0 °F 28.0 °F 52% 29.51 in 10.0 mi South 15.0 mph - N/A   Clear
11:15 PM 44.2 °F 38.0 °F 28.4 °F 54% 29.51 in 10.0 mi South 12.7 mph 19.6 mph N/A   Clear
11:35 PM 43.7 °F 38.1 °F 28.2 °F 54% 29.51 in 10.0 mi SSE 10.4 mph - N/A   Clear
11:55 PM 43.0 °F 38.2 °F 28.4 °F 56% 29.51 in 10.0 mi SSE 8.1 mph - N/A   Clear